This is the latest recevied weather packets stored in our database for station/object EA3ANS-1. If no packets are shown the sender has not sent any weather packets the latest 10 day(s).
| Time | Temp. | Humidity | Pressure | Rain* | Wind** | Luminosity | Snow |
|---|---|---|---|---|---|---|---|
| 1777848772 | 15.56° C | - | 1014 hPa | 0 mm | 0 m/s | - | - |
| 1777848169 | 15° C | - | 1014 hPa | 0 mm | 0.89 m/s, 205° | - | - |
| 1777847571 | 15.56° C | - | 1013.9 hPa | 0 mm | 1.34 m/s, 179° | - | - |
| 1777846974 | 15.56° C | - | 1013.9 hPa | 0 mm | 0 m/s | - | - |
| 1777846376 | 15.56° C | - | 1013.9 hPa | 0 mm | 1.34 m/s, 69° | - | - |
| 1777845779 | 15.56° C | - | 1013.6 hPa | 0 mm | 1.79 m/s, 63° | - | - |
| 1777845179 | 16.11° C | - | 1013.8 hPa | 0 mm | 1.34 m/s, 75° | - | - |
| 1777844581 | 16.11° C | - | 1013.8 hPa | 0 mm | 2.68 m/s, 45° | - | - |
| 1777843978 | 16.11° C | - | 1014 hPa | 0 mm | 0.45 m/s, 165° | - | - |
| 1777843380 | 16.11° C | - | 1013.9 hPa | 0 mm | 0.45 m/s, 121° | - | - |
| 1777842783 | 16.11° C | - | 1014.1 hPa | 0 mm | 1.34 m/s, 69° | - | - |
| 1777842185 | 16.67° C | - | 1014.1 hPa | 0 mm | 0.89 m/s, 124° | - | - |
| 1777841575 | 16.11° C | - | 1014.1 hPa | 0 mm | 0.89 m/s, 205° | - | - |
| 1777840967 | 16.11° C | - | 1014.1 hPa | 0 mm | 0 m/s | - | - |
| 1777840365 | 16.67° C | - | 1014 hPa | 0 mm | 0 m/s | - | - |
| 1777839762 | 16.67° C | - | 1014 hPa | 0 mm | 0 m/s | - | - |
| 1777839161 | 16.11° C | - | 1014.1 hPa | 0 mm | 0 m/s | - | - |
| 1777838563 | 16.11° C | - | 1014.1 hPa | 0 mm | 0 m/s | - | - |
| 1777837963 | 16.11° C | - | 1014 hPa | 0 mm | 0.45 m/s, 187° | - | - |
| 1777837361 | 16.11° C | - | 1014 hPa | 0 mm | 0 m/s | - | - |
| 1777836763 | 16.11° C | - | 1013.9 hPa | 0 mm | 1.34 m/s, 224° | - | - |
| 1777836165 | 16.11° C | - | 1013.7 hPa | 0 mm | 1.34 m/s, 132° | - | - |
| 1777835562 | 16.67° C | - | 1013.6 hPa | 0 mm | 1.34 m/s, 181° | - | - |
| 1777834963 | 16.67° C | - | 1013.6 hPa | 0 mm | 0.89 m/s, 120° | - | - |
| 1777834363 | 16.67° C | - | 1013.5 hPa | 0 mm | 1.79 m/s, 129° | - | - |
* Rain latest hour (hover to see other rain measurements)
** Current wind speed in m/s (hover to see current wind gust speed)